[[{"header":{"parameterUnit":"m.s-1","parameterCategory":1,"la1":30.2992,"la2":30.254,"lo1":-89.0895,"lo2":-89.0443,"dy":0.0025,"dx":0.0025,"nx":19,"ny":19,"refTime":"2026-03-10T09:00:00:Z","depth":0,"parameterNumber":2,"parameterNumberName":"U-component_of_WINDS"},"data":[0,0,0,-1.5691,-1.5693,-1.5797,-1.5797,-1.5926,-1.5928,0,0,0,0,0,0,0,0,0,0,0,-1.5654,-1.5655,-1.5691,-1.5693,-1.5797,-1.5797,-1.5926,-1.5928,0,0,0,0,0,0,0,0,0,0,0,-1.5654,-1.5655,-1.5656,-1.5693,-1.5797,-1.5798,-1.5926,-1.585,0,0,0,0,0,0,0,0,0,0,-1.575,-1.571,-1.5655,-1.5656,-1.5694,-1.5797,-1.5798,-1.5846,-1.5854,-1.5877,0,-1.5892,0,-1.5911,-1.5936,-1.5936,0,0,0,-1.5698,-1.5703,-1.5736,-1.5656,-1.5695,-1.5797,-1.5751,-1.5851,-1.586,-1.5888,-1.5894,-1.5899,-1.5914,-1.5936,-1.5937,-1.6041,-1.6041,0,0,-1.5692,-1.5671,-1.5729,-1.5741,-1.5722,-1.5748,-1.5755,-1.5857,-1.5863,-1.5894,-1.5902,-1.5916,-1.5937,-1.5938,-1.604,-1.6041,0,0,0,-1.5672,-1.5667,-1.5697,-1.5736,-1.5755,-1.5751,-1.5759,-1.5859,-1.587,-1.5904,-1.5917,-1.5938,-1.5939,-1.604,-1.6041,-1.603,0,0,0,-1.5669,-1.5655,-1.5694,-1.5682,-1.5753,-1.5807,-1.5758,-1.5863,-1.5876,-1.5917,-1.5938,-1.5941,-1.604,-1.604,-1.603,-1.603,0,0,0,-1.565,-1.5653,-1.5666,-1.5681,-1.5725,-1.5806,-1.5824,-1.5866,-1.5884,-1.5936,-1.5941,-1.604,-1.604,-1.603,-1.6029,-1.605,0,0,0,-1.5623,-1.5657,-1.5665,-1.5709,-1.5723,-1.5798,-1.5823,-1.5881,-1.5925,-1.5939,-1.604,-1.604,-1.603,-1.6029,-1.6049,-1.6063,-1.6066,0,0,-1.5654,-1.566,-1.5687,-1.5698,-1.5765,-1.5784,-1.5852,-1.5914,-1.594,-1.6006,-1.6009,-1.603,-1.6029,-1.605,-1.6094,-1.6097,0,0,0,-1.569,-1.5709,-1.5732,-1.5771,-1.5817,-1.5857,-1.591,-1.5934,-1.599,-1.5969,-1.6044,-1.6045,-1.6058,-1.6065,-1.6067,-1.608,-1.6043,-1.6043,-1.6043,-1.5703,-1.5732,-1.578,-1.5821,-1.5859,-1.5913,-1.5948,-1.5989,-1.6009,-1.6027,-1.6046,-1.6069,-1.6077,-1.6079,-1.6092,-1.6056,-1.6056,-1.6056,-1.6056,-1.5751,-1.5783,-1.5807,-1.5861,-1.5893,-1.594,-1.5995,-1.6007,-1.6058,-1.6057,-1.607,-1.6066,-1.6081,-1.6094,-1.6056,-1.6056,-1.6056,-1.6056,-1.6056,-1.5762,-1.5783,-1.5808,-1.5867,-1.591,-1.5953,-1.5999,-1.6027,-1.6055,-1.6068,-1.6092,-1.6092,-1.6096,-1.6077,-1.6077,-1.6077,-1.6077,-1.6078,-1.6078,-1.5764,-1.5793,-1.5827,-1.5878,-1.5906,-1.5948,-1.6003,-1.6033,-1.6074,-1.6092,-1.6092,-1.6111,-1.6076,-1.6066,-1.6079,-1.6079,-1.6079,-1.6078,-1.6078,-1.5801,-1.5797,-1.5848,-1.5876,-1.5939,-1.598,-1.6015,-1.6074,-1.6104,-1.6126,-1.6142,-1.6112,-1.6121,-1.6119,-1.6112,-1.6135,-1.6135,-1.6135,-1.6135,-1.581,-1.5817,-1.5876,-1.5919,-1.5965,-1.6002,-1.6062,-1.6106,-1.6151,-1.6171,-1.6172,-1.6165,-1.6162,-1.6173,-1.617,-1.6163,-1.6199,-1.62,-1.62,-1.5835,-1.5847,-1.5891,-1.5931,-1.5982,-1.6026,-1.6084,-1.6135,-1.6186,-1.6203,-1.6188,-1.6185,-1.6173,-1.6168,-1.6184,-1.6179,-1.6167,0,0]},{"header":{"parameterUnit":"m.s-1","parameterCategory":1,"la1":30.2992,"la2":30.254,"lo1":-89.0895,"lo2":-89.0443,"dy":0.0025,"dx":0.0025,"nx":19,"ny":19,"refTime":"2026-03-10T09:00:00:Z","depth":0,"parameterNumber":3,"parameterNumberName":"V-component_of_WINDS"},"data":[0,0,0,4.0289,4.0291,4.0387,4.0388,4.0513,4.0514,0,0,0,0,0,0,0,0,0,0,0,4.0258,4.0259,4.0288,4.0291,4.0387,4.0388,4.0513,4.0514,0,0,0,0,0,0,0,0,0,0,0,4.0258,4.0259,4.0259,4.0291,4.0387,4.0388,4.0512,4.044,0,0,0,0,0,0,0,0,0,0,4.0346,4.0315,4.0258,4.026,4.0292,4.0387,4.0388,4.0436,4.0444,4.0469,0,4.0488,0,4.0503,4.0522,4.0523,0,0,0,4.0293,4.0308,4.0336,4.026,4.0292,4.0387,4.0344,4.0441,4.045,4.0479,4.049,4.0494,4.0505,4.0523,4.0524,4.0655,4.0656,0,0,4.0287,4.0275,4.0329,4.0341,4.0324,4.0341,4.0347,4.0446,4.0457,4.049,4.0497,4.0507,4.0524,4.0525,4.0655,4.0655,0,0,0,4.0271,4.0271,4.0296,4.0336,4.0353,4.0344,4.0351,4.0453,4.0462,4.0499,4.0508,4.0524,4.0526,4.0654,4.0655,4.0669,0,0,0,4.0268,4.0261,4.0294,4.0287,4.0351,4.0404,4.0355,4.0455,4.0467,4.0508,4.0524,4.0527,4.0654,4.0655,4.0667,4.0678,0,0,0,4.0253,4.026,4.0273,4.0286,4.0327,4.0402,4.0417,4.0458,4.0473,4.0523,4.0527,4.0653,4.0655,4.0666,4.0676,4.0711,0,0,0,4.0233,4.0283,4.0273,4.0333,4.0326,4.0409,4.0417,4.048,4.0524,4.0525,4.0654,4.0655,4.0666,4.0675,4.0709,4.0739,4.075,0,0,4.029,4.0289,4.0326,4.0319,4.0401,4.0395,4.0481,4.0534,4.0551,4.062,4.0624,4.0668,4.0676,4.0711,4.0811,4.0819,0,0,0,4.034,4.0366,4.0391,4.0432,4.0473,4.051,4.0551,4.0572,4.0631,4.0583,4.069,4.0695,4.0716,4.0731,4.0738,4.0758,4.0661,4.0661,4.0661,4.0402,4.0421,4.0484,4.0515,4.0555,4.0598,4.0633,4.0669,4.0675,4.0701,4.0722,4.078,4.0797,4.0802,4.0823,4.0737,4.0738,4.0738,4.0738,4.0489,4.053,4.0539,4.0603,4.0623,4.0678,4.0723,4.0727,4.0783,4.0765,4.0784,4.0764,4.0811,4.083,4.0739,4.0739,4.0739,4.0738,4.0738,4.0533,4.0556,4.0579,4.0642,4.069,4.072,4.0774,4.079,4.0807,4.0826,4.0852,4.0852,4.0856,4.0837,4.0837,4.0837,4.0838,4.0838,4.0838,4.0571,4.0596,4.0638,4.0688,4.0718,4.076,4.0805,4.0836,4.0875,4.0883,4.0884,4.0891,4.0811,4.0791,4.0841,4.0841,4.084,4.084,4.084,4.0654,4.0638,4.0703,4.0733,4.0794,4.0842,4.0862,4.0925,4.0953,4.098,4.0983,4.092,4.0922,4.0917,4.0901,4.0976,4.0976,4.0976,4.0976,4.0694,4.0696,4.0767,4.0815,4.0863,4.0889,4.0966,4.1003,4.1039,4.1059,4.105,4.1031,4.1024,4.103,4.1022,4.1008,4.1109,4.1109,4.1109,4.0747,4.0755,4.0816,4.0849,4.0898,4.0942,4.1016,4.1073,4.1111,4.1115,4.1075,4.107,4.1038,4.1026,4.103,4.1018,4.0992,0,0]}]]